{"data":{"norad_id":44390,"epoch":"2026-05-25T03:53:11.439744Z","epoch_age_seconds":61012,"freshness":"FRESH","line1":"1 44390U 19038D   26145.16193796  .00011700  00000+0  42096-3 0  9993","line2":"2 44390  97.8780 176.7284 0013913  32.9583 327.2520 15.28690508378286","mean_motion":15.28690508,"eccentricity":0.0013913,"inclination_deg":97.878,"raan_deg":176.7284,"arg_perigee_deg":32.9583,"mean_anomaly_deg":327.252,"bstar":0.00042096,"rev_number":37828,"period_min":94.198269202572,"perigee_km":470.18450417837,"apogee_km":489.26719334133,"semimajor_km":6857.8628487598,"source":"CELESTRAK","updated_at":"2026-05-25T13:37:55.972197Z"}}